Time,TemperatureF,DewpointF,PressureIn,WindDirection,WindDirectionDegrees,WindSpeedMPH,WindSpeedGustMPH,Humidity,HourlyPrecipIn,Conditions,Clouds,dailyrainin,SoftwareType,DateUTC
2013-10-01 00:09:00,64.6,50.7,29.94,SSW,202,1.7,7.8,61,0.00,,,0.00,WUHU21636XXSP,2013-10-01 05:09:00,
2013-10-01 00:19:00,64.6,50.7,29.94,SSW,202,2.9,4.9,61,0.00,,,0.00,WUHU21636XXSP,2013-10-01 05:19:00,
2013-10-01 00:29:00,64.6,50.7,29.94,SSW,202,0.4,3.1,61,0.00,,,0.00,WUHU21636XXSP,2013-10-01 05:29:00,
2013-10-01 00:39:00,64.6,50.7,29.94,SSW,202,0.0,2.4,61,0.00,,,0.00,WUHU21636XXSP,2013-10-01 05:39:00,
2013-10-01 00:49:00,64.4,50.5,29.95,SSW,202,0.0,1.5,61,0.00,,,0.00,WUHU21636XXSP,2013-10-01 05:49:00,
2013-10-01 00:59:00,64.2,50.4,29.95,SSW,202,2.4,2.4,61,0.00,,,0.00,WUHU21636XXSP,2013-10-01 05:59:00,
2013-10-01 01:09:00,64.2,50.4,29.95,SSW,202,0.0,2.4,61,0.00,,,0.00,WUHU21636XXSP,2013-10-01 06:09:00,
2013-10-01 01:19:00,64.0,50.2,29.95,SSW,202,0.0,0.0,62,0.00,,,0.00,WUHU21636XXSP,2013-10-01 06:19:00,
2013-10-01 01:29:00,63.7,50.4,29.95,SSW,202,0.0,0.0,62,0.00,,,0.00,WUHU21636XXSP,2013-10-01 06:29:00,
2013-10-01 01:39:00,63.5,50.5,29.95,SSW,202,0.0,0.0,63,0.00,,,0.00,WUHU21636XXSP,2013-10-01 06:39:00,
2013-10-01 01:49:00,63.1,50.2,29.95,SSW,202,0.0,0.0,63,0.00,,,0.00,WUHU21636XXSP,2013-10-01 06:49:00,
2013-10-01 01:59:00,62.8,49.8,29.96,SSW,202,0.0,0.0,63,0.00,,,0.00,WUHU21636XXSP,2013-10-01 06:59:00,
2013-10-01 02:09:00,62.4,50.0,29.96,SSW,202,0.0,0.0,64,0.00,,,0.00,WUHU21636XXSP,2013-10-01 07:09:00,
2013-10-01 02:19:00,62.2,50.2,29.96,SSW,202,0.0,0.0,65,0.00,,,0.00,WUHU21636XXSP,2013-10-01 07:19:00,
2013-10-01 02:29:00,61.9,49.8,29.96,SSW,202,0.0,0.0,65,0.00,,,0.00,WUHU21636XXSP,2013-10-01 07:29:00,
2013-10-01 02:39:00,61.7,50.2,29.96,SSW,202,0.0,0.0,66,0.00,,,0.00,WUHU21636XXSP,2013-10-01 07:39:00,
2013-10-01 02:49:00,61.3,50.2,29.96,SSW,202,0.0,0.0,66,0.00,,,0.00,WUHU21636XXSP,2013-10-01 07:49:00,
2013-10-01 03:00:00,61.3,50.2,29.96,SSW,202,0.0,0.0,66,0.00,,,0.00,WUHU21636XXSP,2013-10-01 08:00:00,
2013-10-01 03:10:00,61.3,50.2,29.97,SSW,202,0.0,0.0,66,0.00,,,0.00,WUHU21636XXSP,2013-10-01 08:10:00,
2013-10-01 03:20:00,60.8,50.2,29.98,SSW,202,0.0,0.0,68,0.00,,,0.00,WUHU21636XXSP,2013-10-01 08:20:00,
2013-10-01 03:30:00,59.7,49.5,29.98,SSW,202,0.0,0.0,69,0.00,,,0.00,WUHU21636XXSP,2013-10-01 08:30:00,
2013-10-01 03:40:00,59.5,49.3,29.98,SSW,202,0.0,1.5,69,0.00,,,0.00,WUHU21636XXSP,2013-10-01 08:40:00,
2013-10-01 03:50:00,59.2,49.5,29.99,North,0,4.2,4.2,70,0.00,,,0.00,WUHU21636XXSP,2013-10-01 08:50:00,
2013-10-01 04:00:00,59.0,49.3,29.98,North,0,0.0,4.2,71,0.00,,,0.00,WUHU21636XXSP,2013-10-01 09:00:00,
2013-10-01 04:10:00,58.6,49.6,29.99,North,0,0.0,4.0,72,0.00,,,0.00,WUHU21636XXSP,2013-10-01 09:10:00,
2013-10-01 04:20:00,57.9,48.9,29.99,NE,45,4.0,4.2,72,0.00,,,0.00,WUHU21636XXSP,2013-10-01 09:20:00,
2013-10-01 04:30:00,57.4,48.7,29.99,North,0,8.0,8.5,73,0.00,,,0.00,WUHU21636XXSP,2013-10-01 09:30:00,
2013-10-01 04:40:00,57.0,48.7,29.99,NE,45,0.0,8.0,74,0.00,,,0.00,WUHU21636XXSP,2013-10-01 09:40:00,
2013-10-01 04:50:00,56.8,48.6,30.00,NE,45,0.0,0.8,74,0.00,,,0.00,WUHU21636XXSP,2013-10-01 09:50:00,
2013-10-01 05:00:00,56.5,48.2,30.01,NE,45,0.6,0.6,74,0.00,,,0.00,WUHU21636XXSP,2013-10-01 10:00:00,
2013-10-01 05:10:00,55.8,48.2,30.01,NNE,22,0.0,3.5,76,0.00,,,0.00,WUHU21636XXSP,2013-10-01 10:10:00,
2013-10-01 05:20:00,55.2,48.0,30.02,North,0,0.6,6.9,77,0.00,,,0.00,WUHU21636XXSP,2013-10-01 10:20:00,
2013-10-01 05:30:00,55.2,48.0,30.02,NNE,22,1.3,8.9,79,0.00,,,0.00,WUHU21636XXSP,2013-10-01 10:30:00,
2013-10-01 05:40:00,55.4,48.6,30.03,North,0,0.0,8.0,78,0.00,,,0.00,WUHU21636XXSP,2013-10-01 10:40:00,
2013-10-01 05:50:00,55.6,48.0,30.04,NE,45,3.1,8.7,76,0.00,,,0.00,WUHU21636XXSP,2013-10-01 10:50:00,
2013-10-01 06:00:00,55.9,48.0,30.04,NE,45,3.1,9.8,75,0.00,,,0.00,WUHU21636XXSP,2013-10-01 11:00:00,
2013-10-01 06:10:00,56.1,47.8,30.05,NE,45,0.0,3.1,74,0.00,,,0.00,WUHU21636XXSP,2013-10-01 11:10:00,
2013-10-01 06:20:00,56.1,47.5,30.06,NE,45,0.0,1.3,73,0.00,,,0.00,WUHU21636XXSP,2013-10-01 11:20:00,
2013-10-01 06:31:00,55.9,47.3,30.06,NE,45,1.1,4.4,72,0.00,,,0.00,WUHU21636XXSP,2013-10-01 11:31:00,
2013-10-01 06:41:00,55.8,46.4,30.07,NE,45,1.7,9.8,71,0.00,,,0.00,WUHU21636XXSP,2013-10-01 11:41:00,
2013-10-01 06:51:00,55.6,46.2,30.08,NNE,22,0.0,4.2,70,0.00,,,0.00,WUHU21636XXSP,2013-10-01 11:51:00,
2013-10-01 07:01:00,55.6,45.9,30.08,NNE,22,0.0,8.2,69,0.00,,,0.00,WUHU21636XXSP,2013-10-01 12:01:00,
2013-10-01 07:11:00,55.2,44.8,30.09,North,0,4.6,4.6,68,0.00,,,0.00,WUHU21636XXSP,2013-10-01 12:11:00,
2013-10-01 07:21:00,55.0,44.2,30.10,North,0,2.9,8.9,67,0.00,,,0.00,WUHU21636XXSP,2013-10-01 12:21:00,
2013-10-01 07:31:00,54.7,43.9,30.11,NNE,22,0.0,3.1,67,0.00,,,0.00,WUHU21636XXSP,2013-10-01 12:31:00,
2013-10-01 07:41:00,54.5,43.7,30.11,NE,45,3.5,3.5,67,0.00,,,0.00,WUHU21636XXSP,2013-10-01 12:41:00,
2013-10-01 07:51:00,54.3,43.2,30.11,ENE,67,0.0,3.5,65,0.00,,,0.00,WUHU21636XXSP,2013-10-01 12:51:00,
2013-10-01 08:01:00,54.1,43.0,30.12,ENE,67,0.0,0.6,65,0.00,,,0.00,WUHU21636XXSP,2013-10-01 13:01:00,
2013-10-01 08:11:00,54.1,43.0,30.12,NNE,22,0.0,0.6,64,0.00,,,0.00,WUHU21636XXSP,2013-10-01 13:11:00,
2013-10-01 08:21:00,54.1,42.1,30.13,North,0,0.0,6.7,64,0.00,,,0.00,WUHU21636XXSP,2013-10-01 13:21:00,
2013-10-01 08:31:00,54.1,42.1,30.14,ENE,67,0.0,2.4,64,0.00,,,0.00,WUHU21636XXSP,2013-10-01 13:31:00,
2013-10-01 08:41:00,54.3,42.3,30.14,North,0,0.0,4.9,63,0.00,,,0.00,WUHU21636XXSP,2013-10-01 13:41:00,
2013-10-01 08:51:00,54.5,42.1,30.14,NE,45,0.0,0.0,63,0.00,,,0.00,WUHU21636XXSP,2013-10-01 13:51:00,
2013-10-01 09:01:00,55.0,42.1,30.14,ENE,67,0.6,10.5,62,0.00,,,0.00,WUHU21636XXSP,2013-10-01 14:01:00,
2013-10-01 09:11:00,55.2,41.5,30.14,NE,45,1.3,11.8,60,0.00,,,0.00,WUHU21636XXSP,2013-10-01 14:11:00,
2013-10-01 09:21:00,55.9,41.7,30.14,ENE,67,1.7,10.5,59,0.00,,,0.00,WUHU21636XXSP,2013-10-01 14:21:00,
2013-10-01 09:31:00,56.3,40.6,30.15,ENE,67,6.7,16.3,56,0.00,,,0.00,WUHU21636XXSP,2013-10-01 14:31:00,
2013-10-01 09:41:00,56.8,40.8,30.16,ENE,67,7.6,15.8,55,0.00,,,0.00,WUHU21636XXSP,2013-10-01 14:41:00,
2013-10-01 09:51:00,57.4,40.8,30.16,ENE,67,7.3,16.7,54,0.00,,,0.00,WUHU21636XXSP,2013-10-01 14:51:00,
2013-10-01 10:01:00,57.7,40.6,30.16,ENE,67,7.1,15.4,53,0.00,,,0.00,WUHU21636XXSP,2013-10-01 15:01:00,
2013-10-01 10:11:00,58.3,41.2,30.17,NE,45,3.5,10.5,53,0.00,,,0.00,WUHU21636XXSP,2013-10-01 15:11:00,
2013-10-01 10:21:00,58.8,40.6,30.17,ENE,67,1.1,16.7,52,0.00,,,0.00,WUHU21636XXSP,2013-10-01 15:21:00,
2013-10-01 10:31:00,59.4,40.6,30.17,SE,135,5.1,18.5,50,0.00,,,0.00,WUHU21636XXSP,2013-10-01 15:31:00,
2013-10-01 10:41:00,60.1,40.8,30.17,NE,45,5.1,13.4,49,0.00,,,0.00,WUHU21636XXSP,2013-10-01 15:41:00,
2013-10-01 10:51:00,60.6,40.1,30.18,ENE,67,4.0,13.4,47,0.00,,,0.00,WUHU21636XXSP,2013-10-01 15:51:00,
2013-10-01 11:02:00,61.3,40.1,30.17,ENE,67,6.2,15.6,46,0.00,,,0.00,WUHU21636XXSP,2013-10-01 16:02:00,
2013-10-01 11:12:00,61.7,39.9,30.17,East,90,5.3,17.4,45,0.00,,,0.00,WUHU21636XXSP,2013-10-01 16:12:00,
2013-10-01 11:22:00,62.4,40.6,30.17,NE,45,1.5,16.3,45,0.00,,,0.00,WUHU21636XXSP,2013-10-01 16:22:00,
2013-10-01 11:32:00,63.1,40.6,30.17,NE,45,5.3,17.2,44,0.00,,,0.00,WUHU21636XXSP,2013-10-01 16:32:00,
2013-10-01 11:42:00,63.5,41.5,30.17,ENE,67,0.8,15.2,45,0.00,,,0.00,WUHU21636XXSP,2013-10-01 16:42:00,
2013-10-01 11:52:00,64.0,43.2,30.16,NE,45,5.5,12.0,47,0.00,,,0.00,WUHU21636XXSP,2013-10-01 16:52:00,
2013-10-01 12:02:00,64.9,42.3,30.16,ENE,67,0.0,7.6,46,0.00,,,0.00,WUHU21636XXSP,2013-10-01 17:02:00,
2013-10-01 12:12:00,66.0,42.6,30.16,ENE,67,4.9,19.6,43,0.00,,,0.00,WUHU21636XXSP,2013-10-01 17:12:00,
2013-10-01 12:22:00,66.7,41.5,30.16,NE,45,6.0,15.8,40,0.00,,,0.00,WUHU21636XXSP,2013-10-01 17:22:00,
2013-10-01 12:32:00,67.6,43.0,30.16,ENE,67,2.9,12.7,41,0.00,,,0.00,WUHU21636XXSP,2013-10-01 17:32:00,
2013-10-01 12:42:00,68.2,43.5,30.15,East,90,2.4,14.3,42,0.00,,,0.00,WUHU21636XXSP,2013-10-01 17:42:00,
2013-10-01 12:52:00,68.7,44.6,30.15,ENE,67,6.0,10.5,42,0.00,,,0.00,WUHU21636XXSP,2013-10-01 17:52:00,
2013-10-01 13:02:00,69.4,45.1,30.14,ESE,112,6.2,15.4,42,0.00,,,0.00,WUHU21636XXSP,2013-10-01 18:02:00,
2013-10-01 13:12:00,70.2,44.6,30.14,ENE,67,3.8,14.9,40,0.00,,,0.00,WUHU21636XXSP,2013-10-01 18:12:00,
2013-10-01 13:22:00,70.9,45.9,30.14,ENE,67,0.6,12.7,41,0.00,,,0.00,WUHU21636XXSP,2013-10-01 18:22:00,
2013-10-01 13:32:00,71.6,47.1,30.14,ENE,67,0.6,4.2,42,0.00,,,0.00,WUHU21636XXSP,2013-10-01 18:32:00,
2013-10-01 13:42:00,72.3,46.6,30.14,ENE,67,0.6,11.1,42,0.00,,,0.00,WUHU21636XXSP,2013-10-01 18:42:00,
2013-10-01 13:52:00,73.0,47.3,30.13,ENE,67,4.0,16.5,40,0.00,,,0.00,WUHU21636XXSP,2013-10-01 18:52:00,
2013-10-01 14:01:00,73.0,47.3,30.13,ENE,67,4.0,16.5,40,0.00,,,0.00,WUHU21636XXSP,2013-10-01 19:01:00,
2013-10-01 14:11:00,73.6,46.9,30.13,ESE,112,1.5,12.3,39,0.00,,,0.00,WUHU21636XXSP,2013-10-01 19:11:00,
2013-10-01 14:22:00,74.1,46.8,30.13,ESE,112,4.4,17.8,38,0.00,,,0.00,WUHU21636XXSP,2013-10-01 19:22:00,
2013-10-01 14:36:00,75.0,49.1,30.12,ENE,67,8.0,12.7,40,0.00,,,0.00,WUHU21636XXSP,2013-10-01 19:36:00,
2013-10-01 14:46:00,75.9,48.4,30.12,ENE,67,1.7,12.7,38,0.00,,,0.00,WUHU21636XXSP,2013-10-01 19:46:00,
2013-10-01 15:00:00,76.8,47.7,30.11,ESE,112,2.6,15.2,36,0.00,,,0.00,WUHU21636XXSP,2013-10-01 20:00:00,
2013-10-01 15:16:00,76.8,46.9,30.11,ESE,112,3.3,14.9,36,0.00,,,0.00,WUHU21636XXSP,2013-10-01 20:16:00,
2013-10-01 15:26:00,77.2,48.7,30.11,ESE,112,4.4,14.9,37,0.00,,,0.00,WUHU21636XXSP,2013-10-01 20:26:00,
2013-10-01 15:33:00,77.5,49.8,30.11,ENE,67,0.0,8.7,38,0.00,,,0.00,WUHU21636XXSP,2013-10-01 20:33:00,
2013-10-01 15:51:00,77.5,49.1,30.11,East,90,2.4,13.1,37,0.00,,,0.00,WUHU21636XXSP,2013-10-01 20:51:00,
2013-10-01 16:02:00,77.7,50.7,30.11,ENE,67,1.5,4.2,36,0.00,,,0.00,WUHU21636XXSP,2013-10-01 21:02:00,
2013-10-01 16:22:00,78.4,50.5,30.10,SE,135,0.0,2.9,36,0.00,,,0.00,WUHU21636XXSP,2013-10-01 21:22:00,
2013-10-01 16:32:00,78.4,50.5,30.10,ENE,67,7.1,8.2,38,0.00,,,0.00,WUHU21636XXSP,2013-10-01 21:32:00,
2013-10-01 16:44:00,78.4,49.8,30.10,ESE,112,7.1,17.2,37,0.00,,,0.00,WUHU21636XXSP,2013-10-01 21:44:00,
2013-10-01 16:50:00,78.6,50.7,30.10,East,90,6.4,9.1,38,0.00,,,0.00,WUHU21636XXSP,2013-10-01 21:50:00,
2013-10-01 17:01:00,79.0,50.4,30.10,ENE,67,3.3,12.0,37,0.00,,,0.00,WUHU21636XXSP,2013-10-01 22:01:00,
2013-10-01 17:11:00,79.0,51.8,30.09,NE,45,10.2,11.1,39,0.00,,,0.00,WUHU21636XXSP,2013-10-01 22:11:00,
2013-10-01 17:21:00,79.0,50.4,30.09,SE,135,0.0,10.9,38,0.00,,,0.00,WUHU21636XXSP,2013-10-01 22:21:00,
2013-10-01 17:31:00,79.0,51.1,30.09,East,90,5.5,5.5,38,0.00,,,0.00,WUHU21636XXSP,2013-10-01 22:31:00,
2013-10-01 17:41:00,78.8,50.2,30.09,ENE,67,4.6,5.5,37,0.00,,,0.00,WUHU21636XXSP,2013-10-01 22:41:00,
2013-10-01 17:51:00,78.6,50.7,30.09,ESE,112,2.2,4.6,37,0.00,,,0.00,WUHU21636XXSP,2013-10-01 22:51:00,
2013-10-01 18:01:00,78.4,49.1,30.09,ESE,112,3.3,4.6,36,0.00,,,0.00,WUHU21636XXSP,2013-10-01 23:01:00,
2013-10-01 18:11:00,77.7,49.1,30.09,East,90,2.9,7.6,37,0.00,,,0.00,WUHU21636XXSP,2013-10-01 23:11:00,
2013-10-01 18:21:00,77.4,48.9,30.09,ESE,112,0.0,7.1,37,0.00,,,0.00,WUHU21636XXSP,2013-10-01 23:21:00,
2013-10-01 18:31:00,76.3,47.8,30.09,East,90,0.0,8.2,37,0.00,,,0.00,WUHU21636XXSP,2013-10-01 23:31:00,
2013-10-01 18:41:00,75.6,48.0,30.09,ESE,112,1.1,12.0,38,0.00,,,0.00,WUHU21636XXSP,2013-10-01 23:41:00,
2013-10-01 18:51:00,74.8,48.2,30.09,East,90,0.6,2.4,39,0.00,,,0.00,WUHU21636XXSP,2013-10-01 23:51:00,
2013-10-01 19:01:00,74.1,48.2,30.09,ESE,112,0.0,0.6,41,0.00,,,0.00,WUHU21636XXSP,2013-10-02 00:01:00,
2013-10-01 19:18:00,73.8,48.6,30.09,ESE,112,0.8,10.0,41,0.00,,,0.00,WUHU21636XXSP,2013-10-02 00:18:00,
2013-10-01 19:28:00,72.7,48.7,30.09,ESE,112,2.9,2.9,43,0.00,,,0.00,WUHU21636XXSP,2013-10-02 00:28:00,
2013-10-01 19:34:00,72.1,48.7,30.09,ESE,112,0.0,0.0,44,0.00,,,0.00,WUHU21636XXSP,2013-10-02 00:34:00,
2013-10-01 19:44:00,71.2,48.6,30.09,ESE,112,0.4,3.1,45,0.00,,,0.00,WUHU21636XXSP,2013-10-02 00:44:00,
2013-10-01 19:54:00,70.5,48.0,30.09,ESE,112,0.2,1.7,46,0.00,,,0.00,WUHU21636XXSP,2013-10-02 00:54:00,
2013-10-01 20:04:00,69.8,48.6,30.09,ESE,112,0.0,1.3,47,0.00,,,0.00,WUHU21636XXSP,2013-10-02 01:04:00,
2013-10-01 20:14:00,69.4,48.2,30.10,ESE,112,0.0,0.8,47,0.00,,,0.00,WUHU21636XXSP,2013-10-02 01:14:00,
2013-10-01 20:24:00,68.9,48.2,30.10,ESE,112,0.0,0.8,48,0.00,,,0.00,WUHU21636XXSP,2013-10-02 01:24:00,
2013-10-01 20:34:00,68.5,48.6,30.10,ESE,112,0.0,0.0,49,0.00,,,0.00,WUHU21636XXSP,2013-10-02 01:34:00,
2013-10-01 20:44:00,68.4,48.9,30.10,ESE,112,0.0,0.0,50,0.00,,,0.00,WUHU21636XXSP,2013-10-02 01:44:00,
2013-10-01 20:54:00,67.8,48.9,30.10,ESE,112,0.0,0.0,51,0.00,,,0.00,WUHU21636XXSP,2013-10-02 01:54:00,
2013-10-01 21:04:00,67.6,48.7,30.10,ESE,112,0.0,1.5,52,0.00,,,0.00,WUHU21636XXSP,2013-10-02 02:04:00,
2013-10-01 21:14:00,67.3,48.9,30.10,ESE,112,0.0,0.0,52,0.00,,,0.00,WUHU21636XXSP,2013-10-02 02:14:00,
2013-10-01 21:24:00,66.9,49.1,30.11,ESE,112,0.0,0.0,53,0.00,,,0.00,WUHU21636XXSP,2013-10-02 02:24:00,
2013-10-01 21:34:00,66.7,49.5,30.10,ESE,112,0.0,0.0,54,0.00,,,0.00,WUHU21636XXSP,2013-10-02 02:34:00,
2013-10-01 21:44:00,66.4,49.6,30.11,ESE,112,0.0,0.0,55,0.00,,,0.00,WUHU21636XXSP,2013-10-02 02:44:00,
2013-10-01 21:54:00,66.4,49.6,30.11,ESE,112,0.0,0.0,55,0.00,,,0.00,WUHU21636XXSP,2013-10-02 02:54:00,
2013-10-01 22:04:00,66.0,49.8,30.11,ESE,112,0.0,0.0,56,0.00,,,0.00,WUHU21636XXSP,2013-10-02 03:04:00,
2013-10-01 22:14:00,66.0,49.8,30.11,ESE,112,0.0,0.0,56,0.00,,,0.00,WUHU21636XXSP,2013-10-02 03:14:00,
2013-10-01 22:24:00,65.8,49.6,30.11,ESE,112,0.0,0.0,57,0.00,,,0.00,WUHU21636XXSP,2013-10-02 03:24:00,
2013-10-01 22:34:00,65.5,49.6,30.11,ESE,112,0.0,0.0,57,0.00,,,0.00,WUHU21636XXSP,2013-10-02 03:34:00,
2013-10-01 22:44:00,65.3,49.5,30.11,ESE,112,0.0,0.0,57,0.00,,,0.00,WUHU21636XXSP,2013-10-02 03:44:00,
2013-10-01 22:54:00,64.9,49.6,30.10,ESE,112,0.0,0.0,58,0.00,,,0.00,WUHU21636XXSP,2013-10-02 03:54:00,
2013-10-01 23:04:00,64.8,49.5,30.10,ENE,67,0.4,0.4,58,0.00,,,0.00,WUHU21636XXSP,2013-10-02 04:04:00,
2013-10-01 23:14:00,64.2,49.5,30.10,ENE,67,0.0,1.3,59,0.00,,,0.00,WUHU21636XXSP,2013-10-02 04:14:00,
2013-10-01 23:24:00,64.0,49.3,30.10,ENE,67,0.0,2.4,60,0.00,,,0.00,WUHU21636XXSP,2013-10-02 04:24:00,
2013-10-01 23:34:00,63.7,49.5,30.10,ENE,67,0.0,0.0,60,0.00,,,0.00,WUHU21636XXSP,2013-10-02 04:34:00,
2013-10-01 23:44:00,63.3,49.5,30.10,ENE,67,0.0,0.0,61,0.00,,,0.00,WUHU21636XXSP,2013-10-02 04:44:00,
2013-10-01 23:54:00,63.3,49.5,30.10,ENE,67,0.4,0.4,61,0.00,,,0.00,WUHU21636XXSP,2013-10-02 04:54:00,